Location: Góry Miechowskie
(50.3599°N, 20.1803°E)
Time: 21:44:22
(UTC+00:00)

Cosmos 1812 - Visible Passes

Search period start: 13 September 2024 00:00
Search period end: 23 September 2024 00:00
Orbit: 458 x 461 km, 82.5° (Epoch: 13 September)

Date Brightness Start Highest point End Pass type
(mag) Time Alt. Az. Time Alt. Az. Time Alt. Az.
13 Sep 4.6 02:07:22 10° SSE 02:10:20 26° E 02:13:20 10° NNE visible
14 Sep 5.4 01:36:04 10° ESE 01:38:04 15° E 01:40:06 10° NE visible
14 Sep 2.8 03:08:53 10° SSW 03:12:15 44° WNW 03:15:40 10° N visible
15 Sep 2.4 02:37:14 19° S 02:39:40 88° WNW 02:43:13 10° N visible
16 Sep 3.5 02:05:30 26° SSE 02:07:05 45° E 02:10:28 10° NNE visible
16 Sep 4.3 03:39:45 10° WSW 03:41:54 15° WNW 03:44:03 10° NNW visible
17 Sep 4.5 01:33:36 21° ESE 01:34:31 24° E 01:37:24 10° NE visible
17 Sep 3.6 03:07:29 19° WSW 03:08:59 26° WNW 03:12:01 10° NNW visible
18 Sep 5.4 01:01:36 13° E 01:01:58 13° E 01:03:42 10° NE visible
18 Sep 2.7 02:35:28 43° WSW 02:36:05 49° WNW 02:39:31 10° N visible
19 Sep 2.5 02:03:20 79° ENE 02:03:20 79° ENE 02:06:44 10° NNE visible
20 Sep 4.1 01:31:05 34° ENE 01:31:05 34° ENE 01:33:39 10° NNE visible
20 Sep 4.2 03:04:56 17° WNW 03:05:04 17° WNW 03:07:26 10° NNW visible
21 Sep 5.3 00:58:44 17° ENE 00:58:44 17° ENE 01:00:12 10° NE visible
21 Sep 3.7 02:32:34 27° NW 02:32:34 27° NW 02:35:00 10° N visible
22 Sep 3.8 02:00:06 31° NNW 02:00:06 31° NNW 02:02:09 10° N visible
